Vorticity
6 5 5 5 6 6 5 5 6 5 6 4 6 5 9 9 10 8 9 9 10 9
7 4 5 6 5 5 6 6 7 6 4 5 6 6 9 5 6 4 8 -1 1 20
7 7 7 6 7 6 7 5 8 5 5 7 6 7 3 -1 -0 12 -2 3 2 -3
7 7 9 9 10 10 10 11 8 8 7 8 7 4 19 9 -3 12 3 -7 1 9
6 8 9 9 8 10 12 12 12 5 8 12 -1 9 12 1 15 1 -12 -10 12 8
4 6 11 9 7 8 7 7 10 8 -6 9 -3 -5 1 -1 -4 6 -0 7 -1 8
6 6 9 7 5 6 9 10 -0 15 19 27 7 11 8 -1 -2 3 15 -4 6 15
6 5 7 12 7 9 6 5 -0 14 11 17 -20 2 36 12 5 5 -2 7 12 10
10 11 10 3 17 9 4 17 1 16 -2 2 -2 6 13 16 15 8 4 4 14 5
12 14 12 22 12 -3 -4 -11 35 -7 -18 35 11 19 15 2 6 6 10 12 5 5
11 15 19 19 19 32 -12 -8 11 27 -2 20 5 -1 18 10 9 9 12 4 5 4
19 18 23 55 -17 -3 -7 11 -6 27 24 6 -4 29 2 3 12 12 4 5 3 14
20 17 22 11 3 18 6 8 35 -4 3 6 5 8 4 18 11 5 6 4 14 16
19 17 16 16 -6 -3 25 22 -5 -3 7 -6 3 12 16 7 4 6 4 13 16 10
Height
3146 3149 3152 3153 3155 3157 3158 3160 3162 3163 3164 3164 3165 3166 3168 3167 3168 3167 3167 3167 3165 3164
3140 3143 3146 3148 3149 3151 3153 3155 3157 3158 3158 3159 3159 3160 3162 3162 3162 3162 3162 3161 3161 3159
3135 3137 3140 3141 3142 3145 3147 3149 3150 3151 3152 3153 3154 3155 3155 3157 3157 3157 3157 3156 3155 3154
3128 3130 3132 3134 3136 3138 3140 3142 3144 3145 3146 3148 3149 3150 3151 3152 3153 3152 3151 3150 3149 3147
3119 3121 3124 3126 3129 3131 3133 3134 3136 3138 3139 3141 3143 3144 3145 3146 3146 3145 3145 3144 3141 3139
3111 3113 3117 3119 3121 3124 3126 3128 3130 3133 3134 3135 3138 3139 3139 3139 3140 3140 3138 3137 3134 3132
3103 3106 3109 3112 3114 3117 3120 3122 3125 3126 3128 3129 3130 3132 3132 3131 3131 3132 3130 3128 3127 3125
3095 3098 3100 3102 3106 3109 3113 3116 3117 3120 3120 3122 3124 3125 3124 3123 3123 3123 3123 3121 3119 3117
3086 3088 3090 3092 3096 3101 3105 3106 3110 3112 3113 3113 3115 3116 3118 3117 3115 3115 3115 3113 3112 3110
3073 3076 3079 3083 3086 3092 3097 3097 3101 3104 3104 3104 3106 3108 3109 3109 3108 3107 3107 3106 3105 3102
3063 3065 3068 3071 3079 3083 3086 3089 3093 3094 3095 3097 3099 3098 3099 3100 3100 3100 3100 3099 3097 3095
3053 3055 3058 3063 3069 3073 3075 3080 3083 3085 3088 3089 3087 3092 3090 3092 3092 3092 3092 3090 3089 3086
3044 3046 3051 3056 3061 3065 3069 3071 3076 3077 3079 3078 3083 3082 3084 3084 3085 3085 3084 3082 3080 3078
3034 3038 3042 3048 3052 3056 3060 3065 3066 3069 3070 3072 3073 3075 3075 3077 3078 3077 3076 3075 3072 3069